Location: *
(48.7358°N, 0.3111°E)
Time: 05:13:42
(UTC+00:00)

IDEFIX/ARIANE 42P - Pass Details

Date: 22 October 2019
Orbit: 785 x 803 km, 98.3° (Epoch: 11 November)

Event Time Altitude Azimuth Distance (km) Brightness Sun altitude
Rises 04:43:37 0° 8° (N) 3,316 5.9 -18.0°
Reaches altitude 10° 04:46:06 10° 0° (N) 2,379 5.1 -17.6°
Maximum altitude 04:50:53 38° 295° (WNW) 1,211 3.1 -16.8°
Enters shadow 04:53:17 24° 246° (WSW) 1,579 3.6 -16.4°
